Showing default

HULIANWANG DIGUI-168, 68660

Orbit data source: Space-Track

HULIANWANG DIGUI-168, 68660 is a payload satellite owned by Zhongguo Xingwang (CN) in LEO that was launched on Wed, 08 Apr 2026 UTC via a CHANG ZHENG 6A launch vehicle from the Taiyaun Space Center, China (TSC). Payload-class satellites include a variety of spacecraft equipped with specific instruments for various scientific and technological missions. These include communications satellites like Starlink; space stations such as the ISS; scientific satellites like the Hubble; Earth observation satellites from companies like Planet Labs, Umbra, and HawkEye 360; GPS; miniature CubeSats for education and research; and military/defense satellites.

Loading next visibility...
Identifier
68660, 2026-076E
Orbit
LEO
Country
Flag of CNCN / PRC
Related business
Manufacturer
SECM
Mission
Operational spacecraft
Bus & Motor
XINGWANG S, Unknown motor
Mass
~800 kg wet, ~800 kg dry
Launch date (UTC)
2026-04-08 (1 month ago)
Launch vehicle
CHANG ZHENG 6A
Launch site
Taiyaun Space Center, China (TSC)
Object type
Payload
Rocket body
Debris
Shape & HBR
Unknown shape, 14.5 m
Radar Cross Section
RCS unknown

Expand to show TLE details & history
Last TLE update: 9 hours ago

TLE from 9 hours ago
0 HULIANWANG DIGUI-168
1 68660U 26076E   26140.59353291 -.00000257  00000-0 -49672-3 0  9994
2 68660  86.4965  53.2284 0002534 137.0840 223.0502 13.40609066  5708
Epoch: 2026-05-20T14:14Z
TLE epoch observation values (Epoch: 2026-05-20T14:14:41.243Z)
Latitude
0.00005°
Longitude
-38.6943°
Altitude
1,111.316 km
Speed
7.296 km/s
True Right ascension
03h 32m 54s
True Declination
0° 00' 00"
Sunlit
Object was in daylight at epoch
Visualization orbit readout
Latitude
Unknown
Longitude
Unknown
Altitude
Unknown
Speed
Unknown
Apparent Right ascension
Unknown
Apparent Declination
Unknown
Sunlit
N/A
Visualization observer readout
Local Sidereal Time
08:07:14
Azimuth
Unknown
Elevation
Unknown
Doppler factor
Unknown
Orbital elements
Apogee altitude
1,106.004 km
Perigee altitude
1,102.212 km
Semi-major axis
7,482.245 km
Eccentricity
0.00025
Inclination
86.4965°
RAAN
53.2284°
Arg. of periapsis
137.084°
True anomaly
223.03038°
Mean anomaly
223.0502°
Eccentric anomaly
223.04029°
Mean motion
3.35348 °/min
Orbital period
107.35 mins
BSTAR
-0.00049672
Loading maneuver chart data...
Computing Atmospheric mass density...
Loading historical data...
Loading historical data...
Loading historical data...
Loading historical data...
Loading historical data...
Loading historical data...
Loading historical data...

Documentation

Showing up to 5 results
|